Retour au catalogue

STARLINK-1231

ActifCommunicationsVLEO
NORAD 45212·PAYLOAD·🇺🇸 United States

Lancé Feb 17, 2020 depuis Cape Canaveral Space Force Station

Loading…

Prochains Passages (prochaines 24 heures)

TLE

FraisSource: CelesTrak SupGP

Époque: Sep 14, 2026, 21:52 UTC

1 45212C 20012AL  26257.91159722  .00022820  00000+0  68551-3 0  2575
2 45212  53.0348 217.4326 0003940  42.7037 305.8041 15.33845938    14

Suivez STARLINK-1231 en temps réel avec AllMySat

Download on the App Store